sat.trackr.live / text

‹ back to catalog

STARLINK-11136 [DTC]

NORAD 60407 · 2024-141K

PAYLOAD ACTIVE UNKNOWN

§ Identity

Operator
Country
US
Launch date
2024-08-10
Launch site
AFETR
Launch vehicle
Mass (kg)
RCS (m²)

Purposes: comms

External: N2YO · Heavens-Above · Gunter

§ Orbital elements

Epoch: 2026-05-25T04:08:18.403008Z

Period
91.74 min
Inclination
53.1599°
Eccentricity
0.0001003
Mean motion
15.69709201 rev/d
Perigee alt
359.1 km
Apogee alt
360.4 km
Semi-major
6,737.9 km
B*
1.3334e-5
RAAN
69.3543°
Arg perigee
89.2989°
Mean anomaly
270.8144°
Rev number
10,370

§ Raw data

STARLINK-11136 [DTC]1 60407U 24141K   26145.17243522  .00001027  00000+0  13334-4 0  99902 60407  53.1599  69.3543 0001003  89.2989 270.8144 15.69709201103707

JSON: /api/v1/satellites/60407 · /tle

For live sub-satellite position, see the globe view (requires WebGL).

§ Visibility from observer

Set your observer location to see the next 7 days of passes ≥ 10°. The values pass through the URL so the page stays shareable.

No JS? Fill the form by hand. The geolocation button needs JavaScript.